Hazlehurst, GA

7:28 AM EST on November 23, 2017 (GMT -0500)
Hazlehurst

Weather History for KAZE - September, 2012

Change the Weather History Date:

Friday, September 21, 2012

  Actual Average Record
Temperature  
Mean Temperature 76 °F -  
Max Temperature 85 °F 87 °F 91 °F (2016)
Min Temperature 66 °F 67 °F 63 °F (2014)
Cooling Degree Days 10    
Growing Degree Days 26 (Base 50)    
Moisture  
Dew Point 69 °F    
Average Humidity 67    
Maximum Humidity 100    
Minimum Humidity 51    
Precipitation  
Precipitation 0.00 in - - ()
Sea Level Pressure  
Sea Level Pressure 30.04 in    
Wind  
Wind Speed 1 mph ()    
Max Wind Speed 7 mph    
Max Gust Speed -    
Visibility 6.4 miles    
Events Fog    
Averages and records for this station are not official NWS values.
T = Trace of Precipitation, MM = Missing Value Source: Averaged Metar Reports

Daily Weather History Graph

Daily Weather History Graph

Search for Another Location

Airport or City:

Trip Planner

Search our weather history database for the weather conditions in past years. The results will help you decide how hot, cold, wet, or windy it might be!

Date:

Astronomy

Sep. 21, 2012 Rise Set
Actual Time 7:18 AM EDT 7:27 PM EDT
Civil Twilight 6:54 AM EDT 7:52 PM EDT
Nautical Twilight 6:25 AM EDT 8:20 PM EDT
Astronomical Twilight 5:56 AM EDT 8:49 PM EDT
Moon 1:16 PM EDT (9/21) 11:49 PM EDT (9/21)
Length of Visible Light 12h 58m
Length of Day
12h 09m
Waxing Crescent, 37% of the Moon is Illuminated
Sep 21
Waxing Crescent
Sep 22
First Quarter
Sep 29
Full
Oct 8
Last Quarter
Oct 15
New

Hourly Weather History & Observations

Time (EDT) Temp. Heat Index Dew Point Humidity Pressure Visibility Wind Dir Wind Speed Gust Speed Precip Events Conditions
12:15 AM 68.9 °F - - N/A% 30.08 in 7.0 mi Calm Calm - N/A   Clear
12:35 AM 68.4 °F - - N/A% 30.07 in 5.0 mi Calm Calm - N/A   Haze
12:55 AM 68.2 °F - - N/A% 30.07 in 5.0 mi Calm Calm - N/A   Haze
1:15 AM 68.2 °F - - N/A% 30.07 in 7.0 mi Calm Calm - N/A   Mostly Cloudy
1:35 AM 68.2 °F - - N/A% 30.07 in 2.0 mi Calm Calm - N/A   Overcast
1:55 AM 68.2 °F - - N/A% 30.07 in 0.2 mi Calm Calm - N/A Fog Fog
2:15 AM 67.8 °F - - N/A% 30.07 in 0.2 mi Calm Calm - N/A Fog Fog
2:35 AM 67.6 °F - - N/A% 30.06 in 1.5 mi Calm Calm - N/A   Overcast
2:55 AM 67.5 °F - - N/A% 30.06 in 0.8 mi Calm Calm - N/A   Overcast
3:15 AM 67.3 °F - - N/A% 30.06 in 0.2 mi Calm Calm - N/A Fog Fog
3:35 AM 67.3 °F - - N/A% 30.06 in 0.2 mi Calm Calm - N/A Fog Fog
3:55 AM 67.6 °F - - N/A% 30.05 in 0.5 mi Calm Calm - N/A Fog Fog
4:15 AM 67.5 °F - - N/A% 30.05 in 0.5 mi Calm Calm - N/A Fog Fog
4:35 AM 67.3 °F - - N/A% 30.05 in 1.5 mi Calm Calm - N/A   Overcast
4:55 AM 67.1 °F - - N/A% 30.06 in 0.5 mi Calm Calm - N/A Fog Fog
5:15 AM 66.9 °F - - N/A% 30.06 in 0.5 mi Calm Calm - N/A Fog Fog
5:35 AM 66.9 °F - - N/A% 30.06 in 0.5 mi Calm Calm - N/A Fog Fog
5:55 AM 66.9 °F - - N/A% 30.06 in 0.8 mi NE 3.5 mph - N/A   Overcast
6:15 AM 66.6 °F - - N/A% 30.06 in 0.5 mi Calm Calm - N/A Fog Fog
6:35 AM 66.6 °F - - N/A% 30.06 in 0.5 mi Calm Calm - N/A Fog Fog
6:55 AM 66.4 °F - - N/A% 30.06 in 0.2 mi North 3.5 mph - N/A Fog Fog
7:15 AM 66.2 °F - - N/A% 30.07 in 0.2 mi North 3.5 mph - N/A Fog Fog
7:35 AM 66.2 °F - - N/A% 30.07 in 0.2 mi Calm Calm - N/A Fog Fog
7:55 AM 66.2 °F - - N/A% 30.07 in 0.2 mi Calm Calm - N/A Fog Fog
8:15 AM 66.6 °F - - N/A% 30.08 in 0.2 mi Calm Calm - N/A Fog Fog
8:35 AM 66.9 °F - - N/A% 30.08 in 0.2 mi NE 4.6 mph - N/A Fog Fog
8:55 AM 67.6 °F - - N/A% 30.08 in 1.0 mi NE 6.9 mph - N/A   Overcast
9:15 AM 68.0 °F - - N/A% 30.08 in 1.0 mi East 4.6 mph - N/A   Overcast
9:35 AM 68.5 °F - - N/A% 30.08 in 2.0 mi ENE 4.6 mph - N/A   Overcast
9:55 AM 69.1 °F - - N/A% 30.08 in 7.0 mi NE 3.5 mph - N/A   Overcast
10:15 AM 70.0 °F - - N/A% 30.08 in 7.0 mi Calm Calm - N/A   Overcast
10:35 AM 72.1 °F - - N/A% 30.08 in 10.0 mi ENE 3.5 mph - N/A   Scattered Clouds
10:55 AM 73.9 °F - - N/A% 30.08 in 10.0 mi ENE 4.6 mph - N/A   Scattered Clouds
11:15 AM 75.2 °F - 73.9 °F 96% 30.07 in 10.0 mi East 5.8 mph - N/A   Clear
11:35 AM 78.3 °F - 71.4 °F 79% 30.07 in 10.0 mi ESE 3.5 mph - N/A   Scattered Clouds
11:55 AM 79.7 °F - 70.0 °F 72% 30.07 in 10.0 mi ESE 4.6 mph - N/A   Clear
12:15 PM 80.6 °F 83.8 °F 69.6 °F 69% 30.06 in 10.0 mi East 4.6 mph - N/A   Clear
12:35 PM 81.5 °F 84.8 °F 69.3 °F 66% 30.06 in 10.0 mi North 4.6 mph - N/A   Scattered Clouds
12:55 PM 81.7 °F 84.9 °F 68.7 °F 65% 30.06 in 10.0 mi ENE 5.8 mph - N/A   Scattered Clouds
1:15 PM 82.4 °F 85.4 °F 68.4 °F 62% 30.05 in 10.0 mi Calm Calm - N/A   Clear
1:35 PM 83.1 °F 86.1 °F 67.8 °F 60% 30.05 in 10.0 mi ENE 3.5 mph - N/A   Scattered Clouds
1:55 PM 83.5 °F 86.2 °F 67.1 °F 58% 30.04 in 10.0 mi ESE 4.6 mph - N/A   Scattered Clouds
2:15 PM 82.9 °F 85.4 °F 66.7 °F 58% 30.04 in 10.0 mi Calm Calm - N/A   Scattered Clouds
2:35 PM 85.1 °F 87.7 °F 66.9 °F 54% 30.03 in 10.0 mi NE 4.6 mph - N/A   Mostly Cloudy
2:55 PM 85.5 °F 87.6 °F 66.0 °F 52% 30.02 in 10.0 mi Calm Calm - N/A   Mostly Cloudy
3:15 PM 84.6 °F 86.8 °F 66.0 °F 54% 30.02 in 10.0 mi North 3.5 mph - N/A   Overcast
3:35 PM 84.7 °F 87.1 °F 66.6 °F 54% 30.01 in 10.0 mi NE 3.5 mph - N/A   Mostly Cloudy
3:55 PM 85.5 °F 87.4 °F 65.7 °F 51% 30.01 in 10.0 mi Calm Calm - N/A   Scattered Clouds
4:15 PM 85.5 °F 87.6 °F 65.8 °F 52% 30.00 in 10.0 mi Calm Calm - N/A   Scattered Clouds
4:35 PM 84.9 °F 87.4 °F 66.4 °F 54% 30.00 in 10.0 mi NNE 4.6 mph - N/A   Scattered Clouds
4:55 PM 84.7 °F 87.1 °F 66.6 °F 54% 30.00 in 10.0 mi North 3.5 mph - N/A   Scattered Clouds
5:15 PM 84.6 °F 86.8 °F 66.4 °F 54% 30.00 in 10.0 mi ENE 3.5 mph - N/A   Clear
5:35 PM 84.6 °F 86.6 °F 65.8 °F 53% 29.99 in 10.0 mi Calm Calm - N/A   Clear
5:55 PM 84.2 °F 86.6 °F 66.2 °F 55% 29.99 in 10.0 mi Calm Calm - N/A   Clear
6:15 PM 84.2 °F 86.8 °F 66.7 °F 56% 30.00 in 10.0 mi ENE 3.5 mph - N/A   Clear
6:35 PM 83.5 °F 86.0 °F 66.7 °F 57% 29.99 in 10.0 mi NNE 3.5 mph - N/A   Clear
6:55 PM 82.8 °F 85.5 °F 67.5 °F 60% 30.00 in 10.0 mi Calm Calm - N/A   Clear
7:15 PM 80.1 °F 83.2 °F 70.0 °F 71% 30.00 in 10.0 mi Calm Calm - N/A   Clear
7:35 PM 77.5 °F - 71.4 °F 81% 30.00 in 10.0 mi Calm Calm - N/A   Clear
7:55 PM 76.3 °F - 71.2 °F 84% 30.00 in 10.0 mi Calm Calm - N/A   Clear
8:15 PM 74.8 °F - 71.2 °F 88% 30.01 in 10.0 mi ENE 3.5 mph - N/A   Clear
8:35 PM 73.9 °F - 70.9 °F 90% 30.01 in 10.0 mi ESE 5.8 mph - N/A   Clear
8:55 PM 75.6 °F - 70.5 °F 84% 30.02 in 10.0 mi SSE 4.6 mph - N/A   Clear
9:15 PM 75.2 °F - 71.4 °F 88% 30.02 in 10.0 mi SSE 4.6 mph - N/A   Clear
9:35 PM 74.7 °F - 72.9 °F 94% 30.03 in 10.0 mi Calm Calm - N/A   Clear
10:15 PM 73.6 °F - 73.8 °F 100% 30.03 in 10.0 mi SSE 4.6 mph - N/A   Clear
10:35 PM 73.4 °F - - N/A% 30.04 in 10.0 mi South 4.6 mph - N/A   Clear
10:55 PM 72.9 °F - - N/A% 30.04 in 10.0 mi SSE 3.5 mph - N/A   Clear
11:15 PM 72.7 °F - - N/A% 30.04 in 10.0 mi Calm Calm - N/A   Clear
11:35 PM 72.0 °F - - N/A% 30.04 in 10.0 mi SSE 3.5 mph - N/A   Clear
11:55 PM 71.6 °F - - N/A% 30.04 in 10.0 mi Calm Calm - N/A   Clear